Weather past 2 weeks in Bantam, Cocos Islands

Now
79 °F

Rain. Partly cloudy.


Feels Like: 82 °F
Forecast: 82 / 87 °F
Wind: 13 mph from East

Location: Cocos Island Airport


UV Index: 5 (Moderate)

Visibility: N/A


Pressure: 29.74 "Hg

Humidity: 89%

Dew point: 75 °F

Location of BantamLocation

Historic Weather in Bantam

°F

Bantam temperature yesterday

Maximum temperature yesterday: 82 °F (at 3:30 AM)
Minimum temperature yesterday: 77 °F (at 11:00 AM)
Average temperature yesterday: 79 °F

Past Weeks' High & Low Weather Summary

 TemperatureHumidityPressure
High90 °F (Apr 13, 11:30 AM)100% (Apr 16, 2:00 PM)29.95 "Hg (Apr 16, 2:00 PM)
Low77 °F (Apr 7, 2:00 AM)59% (Apr 9, 12:30 PM)29.74 "Hg (Apr 2, 3:30 PM)
Average84 °F77%29.84 "Hg
* Reported Apr 2 1:30 AM — Apr 17 1:30 AM, Bantam, Weather by CustomWeather, © 2014

Note: Actual official high and low records may vary slightly from our data, if they occured in-between our weather recording intervals... More about our weather records

Advertising

Historic Weather Conditions — Data for Previous 24 hours

 ConditionsComfort  
Time TempWeatherWind HumidityBarometerVisibility
1:30 AM
Apr 17
79 °FWarm.15 mph89%29.74 "HgN/A
1:00 AM79 °FPassing clouds.16 mph89%29.77 "HgN/A
12:30 AM79 °FPassing clouds.15 mph89%29.77 "HgN/A
12:00 AM79 °FSprinkles. Partly cloudy.10 mph89%29.80 "HgN/A
11:30 PM
Apr 16
77 °FSprinkles. Partly cloudy.13 mph94%29.80 "Hg6 mi
10:30 PM77 °FRain showers. Overcast.16 mph94%29.80 "Hg2 mi
10:00 PM79 °FSprinkles. Passing clouds.13 mph94%29.80 "HgN/A
9:30 PM79 °FDrizzle. Overcast.10 mph89%29.77 "HgN/A
9:00 PM81 °FPartly cloudy.10 mph84%29.80 "HgN/A
8:30 PM81 °FClear.14 mph89%29.77 "HgN/A
7:30 PM79 °FPassing clouds.9 mph89%29.77 "HgN/A
7:26 PM79 °FPartly cloudy.9 mph89%29.77 "HgN/A
6:30 PM79 °FLight rain. Partly sunny.13 mph94%29.74 "HgN/A
6:00 PM79 °FLight rain. Broken clouds.13 mph94%29.74 "HgN/A
5:32 PM77 °FLight rain. Cloudy.12 mph94%29.74 "HgN/A
4:30 PM77 °FRain. Cloudy.15 mph94%29.74 "Hg4 mi
4:00 PM77 °FRain. Cloudy.12 mph100%29.74 "Hg3 mi
3:30 PM79 °FLight rain. Cloudy.16 mph94%29.74 "Hg4 mi
3:00 PM79 °FLight rain. Cloudy.20 mph94%29.74 "Hg3 mi
2:30 PM77 °FHeavy rain. Cloudy.17 mph94%29.74 "Hg2 mi
2:00 PM77 °FHeavy rain. Mostly cloudy.22 mph100%29.77 "Hg1 mi
1:30 PM77 °FRain showers. Cloudy.25 mph94%29.77 "Hg2 mi
12:30 PM79 °FRain showers. Cloudy.16 mph94%29.77 "Hg4 mi
11:35 AM81 °FSprinkles. Broken clouds.20 mph84%29.80 "HgN/A
11:30 AM79 °FRain showers. Broken clouds.21 mph89%29.80 "HgN/A
11:00 AM77 °FLots of rain. Cloudy.32 mph94%29.83 "Hg1 mi
10:30 AM82 °FScattered clouds.17 mph84%29.80 "HgN/A
9:30 AM79 °FRain showers. Cloudy.18 mph89%29.83 "Hg5 mi
9:18 AM79 °FRain showers. Broken clouds.21 mph94%29.83 "Hg1 mi
9:00 AM79 °FLots of rain. Partly sunny.26 mph94%29.83 "Hg0 mi
8:30 AM81 °FRain showers. Broken clouds.18 mph89%29.83 "Hg1 mi
8:00 AM81 °FRain showers. Broken clouds.17 mph84%29.83 "Hg4 mi
7:30 AM81 °FScattered clouds.17 mph89%29.80 "HgN/A
5:30 AM82 °FSprinkles. Overcast.15 mph84%29.77 "Hg5 mi
5:00 AM81 °FSprinkles. Passing clouds.9 mph89%29.77 "HgN/A
4:30 AM79 °FSprinkles. Overcast.12 mph94%29.77 "HgN/A
4:00 AM81 °FPassing clouds.15 mph79%29.77 "HgN/A
3:30 AM82 °FClear.10 mph84%29.80 "HgN/A
3:00 AM81 °FDrizzle. Overcast.9 mph84%29.80 "HgN/A
Weather by CustomWeather, © 2014

See weather overview